Regional Weather Roundup
Issued by NWS Newport/Morehead, NC

Current Version | Previous Version | Graphics & Text | Print | Product List | Glossary Off
Versions: 1 2 3 4 5 6 7 8 9 10 11 12 13 14 15 16 17 18 19 20 21 22 23 24 25 26 27 28 29 30 31 32 33 34 35 36 37 38 39 40 41 42 43 44 45 46 47 48 49 50

000
ASUS42 KMHX 232113
RWRMHX
WEATHER ROUNDUP FOR EASTERN NORTH CAROLINA
NATIONAL WEATHER SERVICE NEWPORT/MOREHEAD CITY NC
500 PM EDT SAT SEP 23 2017

NOTE: "FAIR" INDICATES FEW OR NO CLOUDS BELOW 12,000 FEET
WITH NO SIGNIFICANT WEATHER AND/OR OBSTRUCTIONS TO VISIBILITY

NCZ015>017-031-032-045>047-102-103-232200-
NORTH COAST

CITY           SKY/WX    TMP DP  RH WIND       PRES   REMARKS
EDENTON        MOSUNNY   82  72  70 CALM      30.03R
ELIZABETH CITY SUNNY     82  69  64 NE9       30.03S
KITTY HAWK     CLEAR     74  63  66 CALM      30.02S
MANTEO         SUNNY     76  63  63 NE7       30.04S

$$

NCZ045>047-081-094-103-104-232200-
CENTRAL COAST

CITY           SKY/WX    TMP DP  RH WIND       PRES   REMARKS
FRISCO         MOSUNNY   80  70  71 NE9       30.02S

$$

NCZ095-097-098-100-101-232200-
SOUTHERN COAST

CITY           SKY/WX    TMP DP  RH WIND       PRES   REMARKS
BEAUFORT       MOSUNNY   81  71  71 E7        30.01S
CEDAR ISLAND   NOT AVBL
JACKSONVILLE   MOSUNNY   84  62  47 NE7       30.01S
PINEY ISLAND     N/A    N/A N/A N/A E7        30.01S
WILMINGTON     MOSUNNY   82  68  62 E8        30.00S


$$

NCZ011>013-027>030-043-044-078>080-089-090>093-098-232200-
COASTAL PLAIN

CITY           SKY/WX    TMP DP  RH WIND       PRES   REMARKS
AHOSKIE        SUNNY     83  63  50 N6        30.03S
CLINTON        MOSUNNY   86  63  46 E7        30.02F
ELIZABETHTOWN  NOT AVBL
GOLDSBORO      SUNNY     85  65  51 NE9       30.01S
GREENVILLE     SUNNY     86  63  45 NE8       30.04S
HAVELOCK       MOSUNNY   84  67  56 E7        30.02S
KENANSVILLE    MOSUNNY   84  66  54 NE5       30.01F
KINSTON        CLOUDY    84  64  51 N3        30.03
NEW BERN       MOSUNNY   84  66  54 NE9       30.02S
RICHLANDS      SUNNY     85  61  44 NE9       30.02S
ROCKY MOUNT    SUNNY     85  63  47 E6        30.03F
WASHINGTON     MOSUNNY   85  64  48 NE5       30.02S
WHITEVILLE     SUNNY     85  63  48 N3        30.00S

$$

AMZ130-135-150-152-154-156-158-170-250-252-270-ANZ085-086-088-633-658-670-232200-
MARINE OBSERVATIONS

STATION/POSITION TIME  TEMP    WIND        PRES    WAVE   SWELL
                       AIR SEA DIR/SP/G            HT/PER HT/PER
                 (UTC) (F)     (DEG/KT/KT) (MB)    (FT/S) (FT/S)
CHESAPEAKE LIGHT NOT AVBL
64 E VA BEACH    2050   71 71  360/ 10/ 14 1017.0   10/13  10/13
DUCK             2036   74 77   10/  6/  9 1016.6
2 E DUCK         2100      76                N/A     5/10   3/13
OREGON INLET     2036   75 78   20/  8/ 11 1016.8
13E OREGON INLT  2048      75                N/A     6/11   5/11
HATTERAS CG      2036   77 78   30/  9/ 14 1016.5
DIAMOND BUOY     2050   76 76   20/ 12/ 14 1016.2    7/11   7/11
CAPE LOOKOUT     2100   77      80/ 10/ 10 1015.9
BEAUFORT LAB     2036   79 78  110/  9/ 11 1015.7
30 SE NEW RVR IN 2008   79      70/  8/ 10 1016.1
30 SE NEW RVR IN NOT AVBL
27 SE WRIGHTSVLE 2008   80 80   70/ 10/ 14 1016.1
5 SE WRIGHTSVLE  2008   79 80  100/ 10/ 14 1016.0
225 S CAPE HAT   2050   79 80   50/ 17/ 21 1013.3   10/12  10/12
41 SE CHARLESTON 2050   80 82   40/ 16/ 17 1014.7    7/11   5/11

$$




USA.gov is the U.S. government's official web portal to all federal, state and local government web resources and services.